AFR45CR LFLL-LFPG

Flight info

Callsign AFR45CR
Flight time N/A
Altitude 28000
Route MOKIP DCT ARFOZ UN854 TINIL
Aircraft A321/M-SDE2E3FGIJ1RWY/HB1

Departure

Time 2026-05-05 20:08
Airport Lyon Saint-Exupéry Airport (LFLL)

Arrival

Time N/A
Airport Charles de Gaulle International Airport (LFPG)
Time Latitude Longitude Altitude Speed Heading
2026-05-05 19:20 45.72106 5.08182 797 ft 0 kts 306°
2026-05-05 19:50 45.72103 5.08188 798 ft 2 kts 306°
2026-05-05 19:50 45.72094 5.08205 798 ft 2 kts 305°
2026-05-05 19:51 45.72086 5.08222 798 ft 2 kts 310°
2026-05-05 19:51 45.72075 5.08236 799 ft 2 kts 327°
2026-05-05 19:51 45.72061 5.08246 799 ft 2 kts 340°
2026-05-05 19:51 45.72047 5.08252 799 ft 2 kts 353°
2026-05-05 19:52 45.72031 5.08252 798 ft 2 kts
2026-05-05 19:52 45.72022 5.08249 798 ft 0 kts 15°
2026-05-05 19:52 45.72017 5.08247 798 ft 0 kts 18°
2026-05-05 19:57 45.72022 5.08249 798 ft 1 kts 18°
2026-05-05 19:57 45.72044 5.08259 798 ft 4 kts 17°
2026-05-05 19:57 45.72088 5.08279 798 ft 8 kts 17°
2026-05-05 19:58 45.72160 5.08310 797 ft 12 kts 12°
2026-05-05 19:58 45.72227 5.08316 796 ft 9 kts
2026-05-05 19:58 45.72266 5.08367 795 ft 7 kts 63°
2026-05-05 19:58 45.72307 5.08412 796 ft 9 kts
2026-05-05 19:59 45.72384 5.08407 794 ft 12 kts 354°
2026-05-05 19:59 45.72483 5.08395 792 ft 15 kts 356°
2026-05-05 19:59 45.72604 5.08382 789 ft 18 kts 354°
2026-05-05 19:59 45.72742 5.08363 786 ft 20 kts 355°
2026-05-05 20:00 45.72871 5.08349 783 ft 19 kts 355°
2026-05-05 20:00 45.73012 5.08330 780 ft 20 kts 354°
2026-05-05 20:00 45.73162 5.08312 777 ft 22 kts 355°
2026-05-05 20:00 45.73321 5.08294 773 ft 23 kts 354°
2026-05-05 20:01 45.73486 5.08273 773 ft 23 kts 355°
2026-05-05 20:01 45.73632 5.08256 770 ft 13 kts 355°
2026-05-05 20:01 45.73699 5.08280 769 ft 10 kts 36°
2026-05-05 20:01 45.73729 5.08359 769 ft 8 kts 86°
2026-05-05 20:02 45.73717 5.08446 770 ft 9 kts 105°
2026-05-05 20:02 45.73700 5.08531 771 ft 6 kts 105°
2026-05-05 20:02 45.73702 5.08523 771 ft 7 kts 105°
2026-05-05 20:02 45.73713 5.08463 770 ft 0 kts 105°
2026-05-05 20:03 45.73713 5.08464 770 ft 0 kts 105°
2026-05-05 20:03 45.73710 5.08481 770 ft 2 kts 105°
2026-05-05 20:03 45.73703 5.08514 771 ft 3 kts 105°
2026-05-05 20:03 45.73697 5.08548 771 ft 1 kts 105°
2026-05-05 20:04 45.73697 5.08549 771 ft 0 kts 105°
2026-05-05 20:05 45.73696 5.08549 771 ft 0 kts 105°
2026-05-05 20:05 45.73696 5.08550 772 ft 0 kts 105°
2026-05-05 20:05 45.73691 5.08577 772 ft 5 kts 105°
2026-05-05 20:05 45.73678 5.08649 773 ft 7 kts 104°
2026-05-05 20:06 45.73651 5.08711 774 ft 7 kts 153°
2026-05-05 20:06 45.73636 5.08718 774 ft 2 kts 173°
2026-05-05 20:06 45.73637 5.08717 774 ft 0 kts 173°
2026-05-05 20:07 45.73632 5.08718 775 ft 2 kts 173°
2026-05-05 20:07 45.73436 5.08743 779 ft 65 kts 175°
2026-05-05 20:08 45.72734 5.08828 793 ft 132 kts 175°
2026-05-05 20:08 45.71672 5.08958 1024 ft 165 kts 176°
2026-05-05 20:08 45.70517 5.09067 1736 ft 164 kts 179°
2026-05-05 20:08 45.69433 5.09062 2413 ft 155 kts 181°
2026-05-05 20:09 45.68342 5.09046 2850 ft 162 kts 179°
2026-05-05 20:09 45.67189 5.09129 3284 ft 170 kts 175°
2026-05-05 20:09 45.66042 5.09640 3687 ft 182 kts 145°
2026-05-05 20:09 45.65333 5.11182 4032 ft 200 kts 105°
2026-05-05 20:10 45.65475 5.13186 4467 ft 214 kts 67°
2026-05-05 20:10 45.66484 5.14760 4892 ft 226 kts 29°
2026-05-05 20:10 45.68063 5.15133 5290 ft 238 kts 351°
2026-05-05 20:10 45.69733 5.14524 5642 ft 257 kts 340°
2026-05-05 20:11 45.71493 5.13673 6115 ft 272 kts 340°
2026-05-05 20:11 45.72644 5.13149 6462 ft 280 kts 342°